| time (UTC) | temp C | wind direction | speed KPH | gust KPH | rain 1hr cm | rain 24hr cm | rain mn cm | humidity % | barometer mb |
| 20260505184619 | 12 | 0 | 1.6 | 9.7 | 0.00 | 0.00 | 0.00 | 74 | 1014.0 |
| 20260505183638 | 12 | 0.0 | 1.6 | 0.00 | 0.00 | 0.00 | 74 | 1014.0 | |
| 20260505182618 | 12 | 338 | 3.2 | 9.7 | 0.00 | 0.00 | 0.00 | 73 | 1014.0 |
| 20260505181618 | 12 | 23 | 3.2 | 6.4 | 0.00 | 0.00 | 0.00 | 73 | 1014.0 |
| 20260505180618 | 13 | 45 | 3.2 | 8.0 | 0.00 | 0.00 | 0.00 | 71 | 1014.1 |
| 20260505175618 | 13 | 45 | 1.6 | 4.8 | 0.00 | 0.00 | 0.00 | 69 | 1013.9 |
| 20260505174621 | 13 | 45 | 4.8 | 9.7 | 0.00 | 0.00 | 0.00 | 67 | 1014.0 |
| 20260505173638 | 14 | 23 | 1.6 | 4.8 | 0.00 | 0.00 | 0.00 | 67 | 1014.2 |
| 20260505172618 | 14 | 0.0 | 0.0 | 0.00 | 0.00 | 0.00 | 68 | 1014.2 | |
| 20260505171618 | 15 | 45 | 3.2 | 8.0 | 0.00 | 0.00 | 0.00 | 65 | 1014.2 |
| 20260505170618 | 15 | 248 | 1.6 | 4.8 | 0.00 | 0.00 | 0.00 | 65 | 1014.3 |
| 20260505165638 | 15 | 0 | 1.6 | 6.4 | 0.00 | 0.00 | 0.00 | 63 | 1014.4 |
| 20260505164618 | 16 | 68 | 1.6 | 4.8 | 0.00 | 0.00 | 0.00 | 62 | 1014.3 |
| 20260505163658 | 16 | 0 | 3.2 | 8.0 | 0.00 | 0.00 | 0.00 | 64 | 1014.3 |
| 20260505162618 | 16 | 338 | 9.7 | 17.7 | 0.00 | 0.00 | 0.00 | 61 | 1014.1 |
| 20260505161620 | 16 | 338 | 4.8 | 9.7 | 0.00 | 0.00 | 0.00 | 61 | 1014.2 |
| 20260505160618 | 16 | 0 | 1.6 | 4.8 | 0.00 | 0.00 | 0.00 | 60 | 1014.2 |
| 20260505152620 | 15 | 45 | 1.6 | 3.2 | 0.00 | 0.00 | 0.00 | 63 | 1014.4 |
| 20260505151620 | 15 | 23 | 4.8 | 8.0 | 0.00 | 0.00 | 0.00 | 62 | 1014.3 |
| 20260505150640 | 16 | 23 | 3.2 | 8.0 | 0.00 | 0.00 | 0.00 | 63 | 1014.3 |
| 20260505140640 | 16 | 315 | 4.8 | 16.1 | 0.00 | 0.00 | 0.00 | 63 | 1014.7 |
| 20260505124620 | 15 | 23 | 3.2 | 8.0 | 0.00 | 0.00 | 0.00 | 66 | 1014.6 |
| 20260505123620 | 15 | 225 | 1.6 | 4.8 | 0.00 | 0.00 | 0.00 | 65 | 1014.6 |
| 20260505122620 | 15 | 338 | 6.4 | 16.1 | 0.00 | 0.00 | 0.00 | 64 | 1014.7 |
| 20260505121619 | 15 | 45 | 3.2 | 6.4 | 0.00 | 0.00 | 0.00 | 66 | 1014.6 |
| 20260505120620 | 15 | 0 | 3.2 | 11.3 | 0.00 | 0.00 | 0.00 | 66 | 1014.6 |
| 20260505115620 | 15 | 0 | 3.2 | 4.8 | 0.00 | 0.00 | 0.00 | 64 | 1014.6 |
| 20260505114640 | 15 | 0 | 6.4 | 14.5 | 0.00 | 0.00 | 0.00 | 63 | 1014.6 |
| 20260505113639 | 15 | 225 | 1.6 | 4.8 | 0.00 | 0.00 | 0.00 | 64 | 1014.7 |
| 20260505112619 | 15 | 23 | 4.8 | 9.7 | 0.00 | 0.00 | 0.00 | 63 | 1014.6 |
| 20260505111640 | 15 | 23 | 3.2 | 12.9 | 0.00 | 0.00 | 0.00 | 63 | 1014.7 |
| 20260505110619 | 15 | 45 | 4.8 | 11.3 | 0.00 | 0.00 | 0.00 | 61 | 1014.6 |
| 20260505101619 | 15 | 45 | 6.4 | 20.9 | 0.00 | 0.00 | 0.00 | 63 | 1015.1 |
| 20260505100639 | 15 | 45 | 4.8 | 8.0 | 0.00 | 0.00 | 0.00 | 62 | 1015.1 |
| 20260505095640 | 15 | 23 | 4.8 | 9.7 | 0.00 | 0.00 | 0.00 | 62 | 1015.2 |
| 20260505094640 | 15 | 23 | 6.4 | 16.1 | 0.00 | 0.00 | 0.00 | 63 | 1015.0 |
| 20260505093619 | 15 | 45 | 4.8 | 6.4 | 0.00 | 0.00 | 0.00 | 65 | 1015.1 |
| 20260505092620 | 15 | 0 | 4.8 | 9.7 | 0.00 | 0.00 | 0.00 | 67 | 1015.2 |
| 20260505091639 | 14 | 45 | 4.8 | 9.7 | 0.00 | 0.00 | 0.00 | 67 | 1015.1 |
| 20260505090619 | 14 | 45 | 3.2 | 6.4 | 0.00 | 0.00 | 0.00 | 67 | 1015.0 |
| 20260505085639 | 14 | 45 | 6.4 | 19.3 | 0.00 | 0.00 | 0.00 | 65 | 1015.0 |
| 20260505084619 | 14 | 225 | 1.6 | 4.8 | 0.00 | 0.00 | 0.00 | 67 | 1015.1 |
| 20260505083619 | 14 | 23 | 4.8 | 9.7 | 0.00 | 0.00 | 0.00 | 67 | 1015.2 |
| 20260505082619 | 13 | 0 | 1.6 | 4.8 | 0.00 | 0.00 | 0.00 | 69 | 1015.2 |
| 20260505081619 | 13 | 45 | 1.6 | 4.8 | 0.00 | 0.00 | 0.00 | 72 | 1015.3 |
| 20260505080619 | 12 | 45 | 3.2 | 6.4 | 0.00 | 0.00 | 0.00 | 74 | 1015.4 |
| 20260505075619 | 11 | 45 | 4.8 | 9.7 | 0.00 | 0.00 | 0.00 | 75 | 1015.5 |
| 20260505074639 | 11 | 45 | 1.6 | 4.8 | 0.00 | 0.00 | 0.00 | 77 | 1015.4 |
| 20260505073619 | 10 | 0.0 | 14.5 | 0.00 | 0.00 | 0.00 | 76 | 1015.4 | |
| 20260505072619 | 10 | 23 | 4.8 | 6.4 | 0.00 | 0.00 | 0.00 | 78 | 1015.4 |
| 20260505071619 | 10 | 23 | 1.6 | 3.2 | 0.00 | 0.00 | 0.00 | 81 | 1015.5 |
| 20260505070619 | 10 | 0 | 3.2 | 4.8 | 0.00 | 0.00 | 0.00 | 83 | 1015.4 |
| 20260505065619 | 9 | 0.0 | 1.6 | 0.00 | 0.00 | 0.00 | 85 | 1015.4 | |
| 20260505064619 | 9 | 0.0 | 1.6 | 0.00 | 0.00 | 0.00 | 86 | 1015.5 | |
| 20260505063619 | 9 | 0.0 | 0.0 | 0.00 | 0.00 | 0.00 | 87 | 1015.6 | |
| 20260505062659 | 9 | 0.0 | 0.0 | 0.00 | 0.00 | 0.00 | 87 | 1015.5 | |
| 20260505061628 | 8 | 0.0 | 0.0 | 0.00 | 0.00 | 0.00 | 87 | 1015.7 | |
| 20260505060619 | 8 | 0.0 | 0.0 | 0.00 | 0.00 | 0.00 | 87 | 1015.5 | |
| 20260505055619 | 8 | 0.0 | 1.6 | 0.00 | 0.00 | 0.00 | 87 | 1015.6 | |
| 20260505054619 | 8 | 0.0 | 0.0 | 0.00 | 0.00 | 0.00 | 88 | 1015.5 | |
| 20260505053619 | 8 | 0.0 | 0.0 | 0.00 | 0.00 | 0.00 | 88 | 1015.5 | |
| 20260505052619 | 8 | 0.0 | 0.0 | 0.00 | 0.00 | 0.00 | 89 | 1015.6 | |
| 20260505051619 | 8 | 0.0 | 0.0 | 0.00 | 0.00 | 0.00 | 89 | 1015.5 | |
| 20260505050619 | 8 | 0.0 | 0.0 | 0.00 | 0.00 | 0.00 | 88 | 1015.6 | |
| 20260505041619 | 8 | 338 | 1.6 | 1.6 | 0.00 | 0.00 | 0.00 | 89 | 1015.2 |
| 20260505040619 | 8 | 0.0 | 1.6 | 0.00 | 0.00 | 0.00 | 89 | 1015.2 | |
| 20260505035619 | 8 | 0.0 | 1.6 | 0.00 | 0.00 | 0.00 | 90 | 1015.3 | |
| 20260505034619 | 8 | 0.0 | 0.0 | 0.00 | 0.00 | 0.00 | 90 | 1015.1 | |
| 20260505033639 | 8 | 0 | 1.6 | 3.2 | 0.00 | 0.00 | 0.00 | 90 | 1015.0 |
| 20260505032619 | 8 | 0.0 | 0.0 | 0.00 | 0.00 | 0.00 | 91 | 1015.2 | |
| 20260505031619 | 8 | 0.0 | 0.0 | 0.00 | 0.00 | 0.00 | 92 | 1015.4 | |
| 20260505030639 | 8 | 0.0 | 0.0 | 0.00 | 0.00 | 0.00 | 92 | 1015.5 | |
| 20260505025618 | 8 | 338 | 1.6 | 1.6 | 0.00 | 0.00 | 0.00 | 92 | 1015.4 |
| 20260505024619 | 8 | 0.0 | 1.6 | 0.00 | 0.00 | 0.00 | 92 | 1015.3 | |
| 20260505023619 | 8 | 0.0 | 0.0 | 0.00 | 0.00 | 0.00 | 92 | 1015.4 | |
| 20260505022619 | 9 | 0.0 | 3.2 | 0.00 | 0.00 | 0.00 | 92 | 1015.4 | |
| 20260505021618 | 9 | 0.0 | 1.6 | 0.00 | 0.00 | 0.00 | 92 | 1015.4 | |
| 20260505020618 | 9 | 338 | 1.6 | 3.2 | 0.00 | 0.00 | 0.00 | 92 | 1015.6 |
| 20260505015618 | 9 | 338 | 1.6 | 3.2 | 0.00 | 0.00 | 0.00 | 92 | 1015.6 |
| 20260505014619 | 9 | 338 | 1.6 | 4.8 | 0.00 | 0.00 | 0.00 | 91 | 1015.5 |
| 20260505013619 | 9 | 0.0 | 0.0 | 0.00 | 0.00 | 0.00 | 91 | 1015.7 | |
| 20260505012618 | 9 | 0.0 | 0.0 | 0.00 | 0.00 | 0.00 | 91 | 1015.7 | |
| 20260505011618 | 9 | 23 | 1.6 | 3.2 | 0.00 | 0.00 | 0.00 | 91 | 1015.7 |
| 20260505010618 | 9 | 45 | 1.6 | 4.8 | 0.00 | 0.00 | 0.00 | 90 | 1015.8 |
| 20260505005619 | 9 | 0.0 | 1.6 | 0.00 | 0.00 | 0.00 | 90 | 1015.8 | |
| 20260505004618 | 10 | 0.0 | 1.6 | 0.00 | 0.00 | 0.00 | 90 | 1015.8 | |
| 20260505003618 | 10 | 0.0 | 1.6 | 0.00 | 0.00 | 0.00 | 91 | 1015.9 | |
| 20260505002618 | 10 | 23 | 1.6 | 4.8 | 0.00 | 0.00 | 0.00 | 92 | 1016.1 |
| 20260505001638 | 10 | 338 | 1.6 | 3.2 | 0.00 | 0.00 | 0.00 | 92 | 1016.1 |
| 20260505000618 | 10 | 338 | 1.6 | 4.8 | 0.00 | 0.00 | 0.00 | 91 | 1016.2 |
| 20260504235618 | 10 | 338 | 1.6 | 4.8 | 0.00 | 0.00 | 0.00 | 92 | 1016.2 |
| 20260504234618 | 10 | 0.0 | 1.6 | 0.00 | 0.00 | 0.00 | 92 | 1016.2 | |
| 20260504233618 | 10 | 0.0 | 0.0 | 0.00 | 0.00 | 0.00 | 92 | 1016.2 | |
| 20260504232638 | 10 | 0.0 | 1.6 | 0.00 | 0.00 | 0.00 | 90 | 1016.0 | |
| 20260504231618 | 10 | 0.0 | 0.0 | 0.00 | 0.00 | 0.00 | 89 | 1016.0 | |
| 20260504230619 | 10 | 0.0 | 0.0 | 0.00 | 0.00 | 0.00 | 89 | 1016.1 | |
| 20260504225638 | 10 | 0.0 | 0.0 | 0.00 | 0.00 | 0.00 | 88 | 1015.9 | |
| 20260504224618 | 10 | 0.0 | 1.6 | 0.00 | 0.00 | 0.00 | 87 | 1015.9 | |
| 20260504223619 | 11 | 0.0 | 0.0 | 0.00 | 0.00 | 0.00 | 87 | 1016.1 | |
| 20260504222618 | 11 | 0.0 | 0.0 | 0.00 | 0.00 | 0.00 | 86 | 1016.1 | |
| 20260504221638 | 11 | 0.0 | 1.6 | 0.00 | 0.00 | 0.00 | 86 | 1016.1 | |
| 20260504220619 | 11 | 0.0 | 3.2 | 0.00 | 0.00 | 0.00 | 86 | 1016.0 | |
| 20260504215639 | 11 | 45 | 4.8 | 11.3 | 0.00 | 0.00 | 0.00 | 86 | 1016.2 |
| 20260504214618 | 12 | 45 | 1.6 | 4.8 | 0.00 | 0.00 | 0.00 | 86 | 1016.2 |
| 20260504213618 | 12 | 0.0 | 3.2 | 0.00 | 0.00 | 0.00 | 86 | 1016.3 | |
| 20260504212618 | 12 | 0.0 | 0.0 | 0.00 | 0.00 | 0.00 | 86 | 1016.4 | |
| 20260504211638 | 12 | 45 | 3.2 | 6.4 | 0.00 | 0.03 | 0.00 | 86 | 1016.2 |
| 20260504210638 | 12 | 0.0 | 0.0 | 0.00 | 0.03 | 0.00 | 86 | 1016.2 | |
| 20260504205618 | 12 | 0.0 | 0.0 | 0.00 | 0.03 | 0.00 | 85 | 1016.3 | |
| 20260504204618 | 12 | 0.0 | 1.6 | 0.00 | 0.03 | 0.00 | 85 | 1016.1 | |
| 20260504203659 | 12 | 90 | 1.6 | 3.2 | 0.00 | 0.03 | 0.00 | 85 | 1016.1 |
| 20260504202618 | 12 | 0.0 | 1.6 | 0.00 | 0.03 | 0.00 | 84 | 1016.1 | |
| 20260504201618 | 12 | 45 | 4.8 | 8.0 | 0.00 | 0.03 | 0.00 | 84 | 1016.0 |
| 20260504200618 | 13 | 45 | 1.6 | 3.2 | 0.00 | 0.03 | 0.00 | 84 | 1015.8 |
| 20260504195638 | 13 | 45 | 4.8 | 8.0 | 0.00 | 0.05 | 0.00 | 84 | 1015.7 |
| 20260504194638 | 13 | 45 | 1.6 | 4.8 | 0.00 | 0.15 | 0.00 | 83 | 1015.6 |
| 20260504193638 | 13 | 0.0 | 0.0 | 0.00 | 0.20 | 0.00 | 82 | 1015.6 | |
| 20260504192627 | 13 | 45 | 1.6 | 3.2 | 0.00 | 0.28 | 0.00 | 81 | 1015.5 |
| 20260504191620 | 13 | 0.0 | 3.2 | 0.00 | 0.28 | 0.00 | 81 | 1015.3 | |
| 20260504190620 | 13 | 0.0 | 0.0 | 0.00 | 0.28 | 0.00 | 81 | 1015.3 | |
| 20260504185620 | 14 | 45 | 1.6 | 3.2 | 0.00 | 0.28 | 0.00 | 80 | 1015.3 |